Insider Trading activities of Americold Realty Trust (COLD)

Insider trading activities (stock purchases, sales, and option exercises) reported by insiders of Americold Realty Trust (COLD) since 2005 are illustrated in Table 1 and Table 2. Table 1 shows the monthly insider trading data of Americold Realty Trust since year 2005. Table 2 shows the detailed insider transactions of Americold Realty Trust since 2005. The reporting company's ticker symbol is COLD. The reporting company's CIK number is 1455863.
The total value of stock buying since 2005 is $7,125,000.
The total value of stock sales since 2005 is $2,270,825,111.
The total value of stock option exercises since 2005 is $386,701,072.


Table 1. Monthly summaries of insider stock purchases, sales, and option exercises for Americold Realty Trust (COLD).
Trading Period Insider Buying Insider Sales Option Exercises
year-month Shares Value Shares Value Shares Value
2019-06 0 $0 0 $0 80,000 $784,800
2019-05 0 $0 0 $0 19,000 $137,340
2019-03 0 $0 46,785,059 $1,285,801,226 266,958 $1,637,857
2019-02 0 $0 166,958 $4,844,453 192,998 $1,637,857
2019-01 0 $0 166,958 $4,131,375 319,561 $1,637,857
2018-12 0 $0 19,781,958 $7,634,541 286,958 $2,815,057
2018-11 0 $0 160,726 $4,208,853 38,000 $372,780
2018-09 0 $0 51,015,560 $559,373,751 0 $0
2018-08 0 $0 0 $0 420,000 $4,120,200
2018-06 0 $0 0 $0 830,000 $8,142,300
2018-05 0 $0 0 $0 100,000 $981,000
2018-01 412,500 $7,125,000 42,653,716 $404,830,912 37,149,238 $364,434,024

Table 2. Detailed insider stock purchases, sales, and option exercises of Americold Realty Trust insiders (COLD)
  Trade Date   Insider Name Trade Type     Shares       Price ($)   Value ($)
2019-06-11 Smernoff Marc (EVP and CFO) Option Ex 80,000 9.81 784,800
2019-05-24 Stuver David Keith (See Remarks) Option Ex 9,000 9.81 88,290
2019-05-15 Novosel Thomas C (See Remarks) Option Ex 5,000 .00 0
2019-05-10 Novosel Thomas C (See Remarks) Option Ex 5,000 9.81 49,050
2019-03-05 Yucaipa American Management, Llc (Director) Sale 38,422,583 27.47 1,055,583,622
2019-03-05 Gault Jeffrey M (Director) Sale 134,290 29.51 3,963,300
2019-03-05 Gault Jeffrey M (Director) Option Ex 100,000 .00 0
2019-03-01 Gross Bradley J. Sale 8,061,228 27.47 221,466,116
2019-03-01 Gault Jeffrey M (Director) Sale 166,958 28.68 4,788,188
2019-03-01 Gault Jeffrey M (Director) Option Ex 166,958 9.81 1,637,857
2019-02-24 Darweesh Andrea (Chief HR Officer and EVP) Option Ex 15,624 .00 0
2019-02-01 Gault Jeffrey M (Director) Sale 166,958 29.02 4,844,453
2019-02-01 Gault Jeffrey M (Director) Option Ex 166,958 9.81 1,637,857
2019-01-23 Power Andrew (Director) Option Ex 8,333 .00 0
2019-01-23 Mackay Michelle (Director) Option Ex 8,333 .00 0
2019-01-23 Heistand James R (Director) Option Ex 8,333 .00 0
2019-01-23 Patterson Mark R (Director) Option Ex 8,333 .00 0
2019-01-23 Gault Jeffrey M (Director) Option Ex 110,938 .00 0
2019-01-23 Alburger George J Jr (Director) Option Ex 8,333 .00 0
2019-01-02 Gault Jeffrey M (Director) Sale 166,958 24.75 4,131,375
2019-01-02 Gault Jeffrey M (Director) Option Ex 166,958 9.81 1,637,857
2018-12-13 Darweesh Andrea (Chief HR Officer and EVP) Sale 115,000 27.44 3,156,060
2018-12-13 Darweesh Andrea (Chief HR Officer and EVP) Option Ex 120,000 9.81 1,177,200
2018-12-03 Gault Jeffrey M (See Remarks) Sale 166,958 26.82 4,478,481
2018-12-03 Gault Jeffrey M (See Remarks) Option Ex 166,958 9.81 1,637,857
2018-12-01 Icecap2 Holdings, L.p. Sale 6,500,000 .00 0
2018-12-01 Opportunity Partners Offshore-b Co-invest Aiv Advisors, Ltd. Sale 6,500,000 .00 0
2018-12-01 Gross Bradley J. Sale 6,500,000 .00 0
2018-11-14 Stuver David Keith (See Remarks) Sale 28,000 26.81 750,652
2018-11-14 Novosel Thomas C (See Remarks) Sale 15,000 26.53 397,950
2018-11-14 Novosel Thomas C (See Remarks) Option Ex 15,000 9.81 147,150
2018-11-13 Musgrave Thomas (See Remarks) Sale 65,000 26.00 1,689,675
2018-11-13 Musgrave Thomas (See Remarks) Option Ex 23,000 9.81 225,630
2018-11-13 Gault Jeffrey M (See Remarks) Sale 30,000 25.99 779,700
2018-11-13 Novosel Thomas C (See Remarks) Sale 22,726 26.00 590,876
2018-09-18 Cf Cold Lp (10% Owner) Sale 7,235,529 23.54 170,302,646
2018-09-18 Burkle Ronald W (Director) Sale 16,530,191 23.54 389,071,105
2018-09-01 Icecap2 Holdings, L.p. Sale 9,083,280 .00 0
2018-09-01 Opportunity Partners Offshore-b Co-invest Aiv Advisors, Ltd. Sale 9,083,280 .00 0
2018-09-01 Gross Bradley J. Sale 9,083,280 .00 0
2018-08-20 Musgrave Thomas (See Remarks) Option Ex 110,000 9.81 1,079,100
2018-08-14 Smernoff Marc (See Remarks) Option Ex 240,000 9.81 2,354,400
2018-08-13 Novosel Thomas C (See Remarks) Option Ex 70,000 9.81 686,700
2018-06-13 Musgrave Thomas (See Remarks) Option Ex 100,000 9.81 981,000
2018-06-12 Boehler Fred W (CEO, President and Trustee) Option Ex 730,000 9.81 7,161,300
2018-05-15 Gault Jeffrey M (See Remarks) Option Ex 100,000 9.81 981,000
2018-01-23 Icecap2 Holdings, L.p. Sale 5,163,716 .00 0
2018-01-23 Cf Cold Lp (10% Owner) Sale 13,581,284 14.90 202,415,456
2018-01-23 Cf Cold Lp (10% Owner) Option Ex 18,574,619 9.81 182,217,012
2018-01-23 Opportunity Partners Offshore-b Co-invest Aiv Advisors, Ltd. Sale 5,163,716 .00 0
2018-01-23 Heistand James R (Director) Buy 31,250 16.00 500,000
2018-01-23 Patterson Mark R (Director) Buy 6,250 16.00 100,000
2018-01-23 Yucaipa American Management, Llc (Director) Sale 13,581,284 14.90 202,415,456
2018-01-23 Yucaipa American Management, Llc (Director) Option Ex 18,574,619 9.81 182,217,012
2018-01-23 Gross Bradley J. Sale 5,163,716 .00 0
2018-01-19 Icecap2 Holdings, L.p. Buy 125,000 17.40 2,175,000
2018-01-19 Opportunity Partners Offshore-b Co-invest Aiv Advisors, Ltd. Buy 125,000 17.40 2,175,000
2018-01-19 Gross Bradley J. Buy 125,000 17.40 2,175,000

Insider trading activities including stock purchases, stock sales, and option exercises of COLD listed in the above tables cannot be completely guaranteed as to their accuracy. For more insider trading information of Americold Realty Trust (symbol COLD, CIK number 1455863) see the Securities and Exchange Commission (SEC) website.